Date String (YYYY-MM-DD hh:mm:ss) UTC,Instrument flags,Ambient pressure (hPa),Sample flow (lpm),Bypass flow (lpm),Sample temperature (°C),Ambient temperature (°C),ASC tube jacket temperature (°C),LED temperature (°C),Box temperature (°C),Sample RH (%),Span deviation,Mass concentration (μg/m³),Mass concentration (μg/m³),Mass concentration (μg/m³)
DateTimeUTC,F1_M11,P_M11,Q1_M11,Q2_M11,T1_M11,T2_M11,T3_M11,T4_M11,T5_M11,U1_M11,ZSPAN_M11,X0_M11,X2_M11,X1_M11
2022-06-16 02:00:00,,0825.4,4.99,0.00,29.3,27.1,00.0,38.1,31.1,08.6,0000.0,0003.14,0002.05,0001.61
2022-06-16 02:01:00,,0825.4,5.00,0.00,29.3,27.2,00.0,38.1,31.1,08.6,0000.0,0003.39,0002.08,0001.60
2022-06-16 02:02:00,,0825.3,5.00,0.00,29.3,27.4,00.0,38.1,31.1,08.6,0000.0,0003.32,0002.03,0001.58
2022-06-16 02:03:00,,0825.3,5.00,0.00,29.3,27.6,00.0,38.1,31.2,08.6,0000.0,0003.63,0002.02,0001.58
2022-06-16 02:04:00,,0825.3,4.99,0.00,29.3,27.8,00.0,38.1,31.2,08.6,0000.0,0004.89,0002.01,0001.56
2022-06-16 02:05:00,,0825.3,5.01,0.00,29.3,28.0,00.0,38.1,31.3,08.6,0000.0,0004.82,0001.98,0001.55
2022-06-16 02:06:00,,0825.3,4.99,0.00,29.4,28.2,00.0,38.2,31.4,08.6,0000.0,0005.00,0002.03,0001.54
2022-06-16 02:07:00,,0825.4,5.00,0.00,29.4,28.4,00.0,38.2,31.4,08.6,0000.0,0005.30,0002.13,0001.54
2022-06-16 02:08:00,,0825.4,5.00,0.00,29.5,28.5,00.0,38.2,31.5,08.6,0000.0,0005.74,0002.15,0001.54
2022-06-16 02:09:00,,0825.3,5.00,0.00,29.5,28.7,00.0,38.2,31.5,08.5,0000.0,0005.83,0002.21,0001.53
2022-06-16 02:10:00,,0825.4,5.00,0.00,29.5,28.7,00.0,38.3,31.6,08.5,0000.0,0006.07,0002.24,0001.52
2022-06-16 02:11:00,,0825.4,5.00,0.00,29.5,28.2,00.0,38.2,31.4,08.4,0000.0,0006.82,0002.30,0001.52
2022-06-16 02:12:00,,0825.4,5.00,0.00,29.4,27.3,00.0,38.2,31.1,08.4,0000.0,0006.65,0002.31,0001.53
2022-06-16 02:13:00,,0825.4,4.99,0.00,29.4,27.1,00.0,38.1,31.1,08.4,0000.0,0006.70,0002.34,0001.55
2022-06-16 02:14:00,,0825.4,5.00,0.00,29.3,27.1,00.0,38.1,31.1,08.4,0000.0,0006.66,0002.33,0001.55
2022-06-16 02:15:00,,0825.4,5.01,0.00,29.3,27.2,00.0,38.1,31.1,08.4,0000.0,0005.85,0002.38,0001.55
2022-06-16 02:16:00,,0825.5,5.00,0.00,29.3,27.4,00.0,38.1,31.1,08.4,0000.0,0006.40,0002.43,0001.56
2022-06-16 02:17:00,,0825.5,4.99,0.00,29.3,27.6,00.0,38.1,31.2,08.4,0000.0,0006.39,0002.41,0001.58
2022-06-16 02:18:00,,0825.5,5.00,0.00,29.3,27.8,00.0,38.1,31.2,08.4,0000.0,0006.05,0002.29,0001.57
2022-06-16 02:19:00,,0825.5,5.00,0.00,29.3,28.0,00.0,38.1,31.3,08.4,0000.0,0005.70,0002.25,0001.57
2022-06-16 02:20:00,,0825.5,5.01,0.00,29.3,28.2,00.0,38.1,31.3,08.4,0000.0,0005.43,0002.24,0001.58
2022-06-16 02:21:00,,0825.5,5.00,0.00,29.4,28.3,00.0,38.2,31.4,08.4,0000.0,0005.38,0002.23,0001.58
2022-06-16 02:22:00,,0825.5,4.99,0.00,29.4,28.5,00.0,38.2,31.4,08.4,0000.0,0004.66,0002.20,0001.58
2022-06-16 02:23:00,,0825.5,5.01,0.00,29.5,28.6,00.0,38.2,31.5,08.4,0000.0,0004.41,0002.17,0001.57
2022-06-16 02:24:00,,0825.5,5.00,0.00,29.5,28.6,00.0,38.2,31.5,08.4,0000.0,0004.54,0002.21,0001.57
2022-06-16 02:25:00,,0825.5,5.00,0.00,29.5,28.0,00.0,38.2,31.3,08.3,0000.0,0004.54,0002.20,0001.56
2022-06-16 02:26:00,,0825.5,4.99,0.00,29.4,27.1,00.0,38.1,31.1,08.4,0000.0,0004.09,0002.17,0001.56
2022-06-16 02:27:00,,0825.6,5.01,0.00,29.3,27.0,00.0,38.1,31.0,08.3,0000.0,0003.41,0002.14,0001.56
2022-06-16 02:28:00,,0825.6,5.01,0.00,29.3,27.0,00.0,38.1,31.0,08.4,0000.0,0003.35,0002.13,0001.54
2022-06-16 02:29:00,,0825.6,5.00,0.00,29.2,27.2,00.0,38.1,31.0,08.4,0000.0,0003.82,0002.18,0001.55
2022-06-16 02:30:00,,0825.6,4.99,0.00,29.2,27.4,00.0,38.1,31.1,08.4,0000.0,0004.18,0002.27,0001.56
2022-06-16 02:31:00,,0825.6,5.01,0.00,29.2,27.6,00.0,38.1,31.1,08.4,0000.0,0004.43,0002.27,0001.56
2022-06-16 02:32:00,,0825.6,5.01,0.00,29.2,27.8,00.0,38.1,31.2,08.3,0000.0,0004.73,0002.25,0001.56
2022-06-16 02:33:00,,0825.6,5.00,0.00,29.3,28.0,00.0,38.1,31.2,08.2,0000.0,0005.55,0002.26,0001.56
2022-06-16 02:34:00,,0825.7,5.00,0.00,29.3,28.1,00.0,38.1,31.3,08.1,0000.0,0006.09,0002.29,0001.55
2022-06-16 02:35:00,,0825.7,4.98,0.00,29.3,28.3,00.0,38.1,31.3,08.1,0000.0,0007.32,0002.27,0001.55
2022-06-16 02:36:00,,0825.7,5.01,0.00,29.4,28.4,00.0,38.2,31.4,08.0,0000.0,0007.30,0002.28,0001.56
2022-06-16 02:37:00,,0826.0,5.01,0.00,29.4,28.6,00.0,38.2,31.5,08.0,0000.0,0007.54,0002.32,0001.57
2022-06-16 02:38:00,,0825.8,5.00,0.00,29.5,28.7,00.0,38.2,31.5,07.9,0000.0,0007.96,0002.37,0001.57
2022-06-16 02:39:00,,0825.8,5.01,0.00,29.5,28.8,00.0,38.2,31.6,07.9,0000.0,0007.98,0002.40,0001.59
2022-06-16 02:40:00,,0825.8,4.99,0.00,29.5,28.5,00.0,38.2,31.5,07.9,0000.0,0007.91,0002.39,0001.59
2022-06-16 02:41:00,,0825.8,4.99,0.00,29.5,27.5,00.0,38.2,31.2,07.9,0000.0,0007.83,0002.36,0001.60
2022-06-16 02:42:00,,0825.8,5.01,0.00,29.4,27.0,00.0,38.1,31.0,08.0,0000.0,0007.71,0002.33,0001.60
2022-06-16 02:43:00,,0825.9,5.00,0.00,29.3,26.9,00.0,38.1,31.0,08.0,0000.0,0007.69,0002.36,0001.61
2022-06-16 02:44:00,,0825.9,4.99,0.00,29.3,27.0,00.0,38.1,31.0,08.1,0000.0,0007.53,0002.37,0001.62
2022-06-16 02:45:00,,0825.9,5.01,0.00,29.2,27.2,00.0,38.1,31.1,08.1,0000.0,0007.49,0002.38,0001.63
2022-06-16 02:46:00,,0825.9,5.01,0.00,29.2,27.4,00.0,38.1,31.1,08.1,0000.0,0006.53,0002.38,0001.66
2022-06-16 02:47:00,,0825.9,5.02,0.00,29.2,27.6,00.0,38.1,31.2,08.0,0000.0,0006.87,0002.43,0001.66
2022-06-16 02:48:00,,0825.9,5.00,0.00,29.3,27.8,00.0,38.1,31.2,08.0,0000.0,0006.87,0002.46,0001.67
2022-06-16 02:49:00,,0826.0,5.00,0.00,29.3,28.0,00.0,38.1,31.3,07.9,0000.0,0006.00,0002.47,0001.68
2022-06-16 02:50:00,,0826.0,5.01,0.00,29.3,28.2,00.0,38.1,31.3,07.8,0000.0,0006.11,0002.52,0001.70
2022-06-16 02:51:00,,0826.0,5.00,0.00,29.4,28.3,00.0,38.2,31.4,07.7,0000.0,0006.21,0002.60,0001.71
2022-06-16 02:52:00,,0826.0,4.98,0.00,29.4,28.5,00.0,38.2,31.4,07.7,0000.0,0006.37,0002.66,0001.72
2022-06-16 02:53:00,,0826.1,5.01,0.00,29.4,28.6,00.0,38.2,31.5,07.6,0000.0,0007.10,0002.74,0001.72
2022-06-16 02:54:00,,0826.1,5.00,0.00,29.5,28.7,00.0,38.2,31.5,07.5,0000.0,0007.68,0002.79,0001.73
2022-06-16 02:55:00,,0826.2,5.00,0.00,29.5,28.7,00.0,38.2,31.5,07.4,0000.0,0007.68,0002.84,0001.75
2022-06-16 02:56:00,,0826.2,5.01,0.00,29.5,28.0,00.0,38.2,31.3,07.4,0000.0,0008.01,0002.86,0001.75
2022-06-16 02:57:00,,0826.1,5.00,0.00,29.4,27.1,00.0,38.1,31.0,07.4,0000.0,0008.22,0002.94,0001.76
2022-06-16 02:58:00,,0826.2,5.00,0.00,29.3,26.9,00.0,38.1,31.0,07.4,0000.0,0008.28,0002.96,0001.77
2022-06-16 02:59:00,,0826.2,4.99,0.00,29.3,27.0,00.0,38.1,31.0,07.4,0000.0,0009.18,0002.98,0001.77
